www.pogodaiklimat.ru

Погода и климат >> Архив погоды >> Япония >> Цусима


ПОГОДА в Цусиме

  • Прогноз погоды в Цусиме
  • Монитор погоды в Цусиме

АРХИВ ПОГОДЫ в Цусиме

Время (UTC), дата Ветер
(напр.,м/с)
 
Видим.   Явления Облачность Т
(С)
Тd
(С)
f
(%)
Тe
(С)
Тes
(С)
Комфортность P
(гПа)
Po
(гПа)
Тmin
(С)
Tmax
(С)
R
(мм)
R24
(мм)
S
(см)
01 13.09 С 5 20 км н/о +26.4 +19.8 67 +32 +32 очень
душно
1013.0 1012.5
02 13.09 С 4 20 км н/о +26.9 +19.8 65 +33 +33 очень
душно
1012.7 1012.2
03 13.09 С 4 20 км н/о +27.0 +18.8 61 +32 +32 очень
душно
1012.3 1011.8
04 13.09 С 5 20 км н/о +27.3 +19.4 62 +33 +33 очень
душно
1011.8 1011.3
05 13.09 С 3 20 км н/о +27.3 +19.7 63 +33 +33 очень
душно
1011.1 1010.6
06 13.09 С 4 20 км н/о +26.5 +19.4 65 +32 +32 очень
душно
1010.8 1010.3
08 13.09 С 3 20 км н/о +25.3 +19.9 72 +31 +31 очень
душно
1011.0 1010.5
09 13.09 С 4 20 км н/о +24.4 +19.7 75 +30 +30 очень
душно
1011.5 1011.0
10 13.09 С 3 20 км н/о +24.2 +19.7 76 +29 +29 душно 1011.7 1011.2
11 13.09 С 4 20 км н/о +24.3 +19.8 76 +30 +30 очень
душно
1012.4 1011.9
12 13.09 С 3 20 км н/о +24.4 +19.9 76 +30 +30 очень
душно
1012.4 1011.9 +27.6
13 13.09 С 3 20 км н/о +24.1 +20.0 78 +30 +30 очень
душно
1012.1 1011.6
14 13.09 С 3 20 км н/о +24.1 +19.8 77 +29 +29 душно 1012.1 1011.6
15 13.09 С 3 20 км н/о +24.0 +19.9 78 +29 +29 душно 1011.7 1011.2
16 13.09 С 2 20 км н/о +23.7 +20.1 80 +29 +29 душно 1011.4 1010.9
17 13.09 С 3 20 км н/о +24.0 +20.3 80 +30 +30 очень
душно
1011.1 1010.6
18 13.09 С 3 20 км н/о +23.8 +20.7 83 +30 +30 очень
душно
1010.9 1010.4
19 13.09 С 3 20 км н/о +23.7 +20.8 84 +30 +30 очень
душно
1010.8 1010.3
21 13.09 С 2 20 км н/о +23.3 +21.0 87 +31 +31 очень
душно
1011.0 1010.5
00 14.09 С 2 20 км н/о +24.6 +21.7 84 +31 +31 очень
душно
1011.6 1011.1 +22.6
01 14.09 С 2 19 км н/о +25.3 +22.2 83 +33 +33 очень
душно
1011.6 1011.1
02 14.09 С 4 20 км н/о +26.2 +22.5 80 +34 +34 очень
душно
1011.1 1010.6
03 14.09 С 2 20 км н/о +27.0 +22.6 77 +36 +36 очень
душно
1010.8 1010.3
04 14.09 В 3 20 км н/о +27.3 +23.1 78 +37 +37 очень
душно
1010.5 1010.0
05 14.09 В 4 20 км н/о +27.8 +23.4 77 +38 +38 очень
душно
1009.8 1009.3
06 14.09 В 3 20 км н/о +27.3 +23.3 79 +37 +37 очень
душно
1009.5 1009.0
07 14.09 СВ 2 20 км н/о +26.0 +23.5 86 +35 +35 очень
душно
1009.4 1008.9
08 14.09 СВ 2 20 км н/о +26.0 +23.7 87 +35 +35 очень
душно
1009.5 1009.0
09 14.09 СЗ 1 20 км н/о +25.9 +23.4 86 +35 +35 очень
душно
1009.5 1009.0
10 14.09 СЗ 1 18 км н/о +24.5 +23.1 92 +33 +33 очень
душно
1009.7 1009.2
11 14.09 СЗ 1 15 км н/о +24.0 +23.2 95 +32 +32 очень
душно
1010.5 1010.0
12 14.09 С 1 15 км н/о +23.9 +23.1 95 +32 +32 очень
душно
1010.9 1010.4 +28.2
13 14.09 СЗ 1 11 км н/о +23.5 +22.8 96 +31 +31 очень
душно
1011.0 1010.5
14 14.09 В 1 8000 м дымка н/о +22.9 +22.4 97 +31 +31 очень
душно
1011.1 1010.6
15 14.09 С 1 10 км н/о +22.6 +21.9 96 +30 +30 очень
душно
1010.8 1010.3
16 14.09 С 1 7000 м дымка н/о +22.3 +22.0 98 +30 +30 очень
душно
1010.5 1010.0
18 14.09 С 2 9000 м дымка н/о +22.5 +22.3 99 +30 +30 очень
душно
1009.5 1009.0
19 14.09 С 3 12 км н/о +22.7 +22.2 97 +31 +31 очень
душно
1009.2 1008.7
20 14.09 С 2 7000 м дымка н/о +22.3 +22.1 99 +30 +30 очень
душно
1009.2 1008.7
21 14.09 С 2 12 км н/о +22.4 +21.9 97 +30 +30 очень
душно
1009.7 1009.2
22 14.09 С 2 11 км н/о +22.6 +22.1 97 +30 +30 очень
душно
1009.9 1009.4
23 14.09 С 2 20 км н/о +24.5 +22.0 86 +32 +32 очень
душно
1010.0 1009.5
00 15.09 С 2 20 км н/о +26.5 +21.3 73 +34 +34 очень
душно
1010.2 1009.7 +22.1
01 15.09 С 2 20 км н/о +27.4 +20.5 66 +34 +34 очень
душно
1010.1 1009.6
02 15.09 СВ 2 20 км н/о +28.2 +20.8 64 +35 +35 очень
душно
1009.8 1009.3
03 15.09 СВ 4 20 км н/о +27.3 +22.3 74 +36 +36 очень
душно
1009.6 1009.1
04 15.09 СВ 3 20 км н/о +27.3 +22.9 77 +36 +36 очень
душно
1009.1 1008.6
05 15.09 С 3 20 км н/о +26.8 +22.9 79 +36 +36 очень
душно
1008.6 1008.1
06 15.09 С 3 20 км н/о +26.6 +21.6 74 +34 +34 очень
душно
1008.2 1007.7
07 15.09 С 2 20 км н/о +26.8 +21.8 74 +34 +34 очень
душно
1008.1 1007.6
08 15.09 С 3 20 км н/о +25.9 +21.8 78 +33 +33 очень
душно
1008.4 1007.9
09 15.09 С 3 20 км н/о +25.3 +21.0 77 +32 +32 очень
душно
1008.5 1008.0
10 15.09 С 3 20 км н/о +24.9 +21.4 81 +32 +32 очень
душно
1008.6 1008.1
11 15.09 С 3 20 км н/о +25.3 +22.4 84 +33 +33 очень
душно
1009.1 1008.6
12 15.09 С 3 20 км н/о +25.1 +21.6 81 +32 +32 очень
душно
1009.6 1009.1 +28.5
13 15.09 С 4 20 км н/о +25.0 +21.7 82 +32 +32 очень
душно
1009.7 1009.2
14 15.09 С 3 20 км н/о +24.7 +21.2 81 +31 +31 очень
душно
1009.7 1009.2
15 15.09 С 3 20 км н/о +24.5 +21.2 82 +31 +31 очень
душно
1009.5 1009.0
16 15.09 С 4 20 км н/о +24.0 +20.5 81 +30 +30 очень
душно
1009.2 1008.7
17 15.09 С 3 20 км н/о +24.0 +19.9 78 +29 +29 душно 1009.0 1008.5
18 15.09 С 3 20 км н/о +23.8 +19.5 77 +29 +29 душно 1008.6 1008.1
19 15.09 С 3 20 км н/о +23.7 +19.7 78 +29 +29 душно 1008.4 1007.9
21 15.09 СЗ 2 20 км н/о +23.5 +19.2 77 +28 +28 душно 1008.5 1008.0
22 15.09 С 3 20 км н/о +23.6 +19.1 76 +28 +28 душно 1008.6 1008.1
23 15.09 С 3 20 км н/о +24.0 +19.3 75 +29 +29 душно 1009.1 1008.6
00 16.09 С 4 20 км н/о +24.9 +19.5 72 +30 +30 душно 1009.2 1008.7 +23.5
03 16.09 С 5 20 км н/о +26.0 +19.2 66 +31 +31 очень
душно
1009.2 1008.7
04 16.09 С 4 20 км н/о +26.4 +18.8 63 +31 +31 душно 1008.9 1008.4
05 16.09 С 4 20 км н/о +26.6 +19.5 65 +32 +32 очень
душно
1008.6 1008.1
06 16.09 С 4 20 км н/о +25.1 +18.8 68 +30 +30 душно 1008.5 1008.0
07 16.09 С 3 20 км н/о +25.1 +19.3 70 +30 +30 душно 1008.6 1008.1
08 16.09 С 4 20 км н/о +24.4 +19.0 72 +29 +29 душно 1008.8 1008.3
09 16.09 С 3 20 км н/о +24.2 +19.1 73 +29 +29 душно 1009.0 1008.5
10 16.09 С 4 20 км н/о +23.5 +18.8 75 +28 +28 душно 1009.4 1008.9
11 16.09 С 4 20 км н/о +23.9 +18.1 70 +28 +28 душно 1010.0 1009.5
12 16.09 С 4 20 км н/о +23.5 +17.5 69 +27 +27 душно 1010.3 1009.8 +27.0
13 16.09 С 4 20 км н/о +23.3 +16.1 64 +28 +28 душно 1010.6 1010.1
14 16.09 С 4 20 км н/о +23.3 +16.8 67 +28 +28 душно 1010.8 1010.3
15 16.09 С 4 20 км н/о +23.1 +17.6 71 +28 +28 душно 1010.9 1010.4
16 16.09 С 4 20 км н/о +23.1 +17.8 72 +29 +29 очень
душно
1010.7 1010.2
17 16.09 С 4 20 км н/о +22.9 +17.6 72 +28 +28 душно 1010.5 1010.0
18 16.09 С 4 20 км н/о +23.0 +17.7 72 +28 +28 душно 1010.5 1010.0
19 16.09 С 4 20 км н/о +23.0 +18.3 75 +29 +29 очень
душно
1010.5 1010.0
20 16.09 С 4 20 км н/о +23.2 +17.7 71 +29 +29 душно 1010.9 1010.4
21 16.09 С 4 20 км н/о +23.4 +16.9 67 +29 +29 душно 1011.7 1011.2
22 16.09 С 4 20 км н/о +23.7 +17.2 67 +28 +28 душно 1012.3 1011.8
23 16.09 С 6 20 км н/о +24.0 +17.5 67 +28 +28 душно 1012.8 1012.3
00 17.09 С 6 20 км н/о +25.0 +17.2 62 +29 +29 душно 1013.0 1012.5 +22.8
01 17.09 С 4 20 км н/о +25.3 +17.8 63 +30 +30 душно 1013.3 1012.8
02 17.09 С 5 20 км н/о +25.8 +18.2 63 +30 +30 душно 1013.2 1012.7
03 17.09 С 5 19 км н/о +26.5 +18.1 60 +31 +31 душно 1012.9 1012.4
04 17.09 С 3 20 км н/о +27.0 +18.3 59 +32 +32 очень
душно
1012.5 1012.0
05 17.09 С 4 20 км н/о +26.3 +18.2 61 +31 +31 душно 1012.3 1011.8
06 17.09 С 4 20 км н/о +26.1 +18.0 61 +31 +31 очень
душно
1011.9 1011.4
07 17.09 С 5 20 км н/о +25.5 +18.0 63 +30 +30 душно 1011.7 1011.2
08 17.09 С 4 20 км н/о +25.1 +17.8 64 +29 +29 душно 1012.0 1011.5
09 17.09 С 3 20 км н/о +24.3 +18.3 69 +29 +29 душно 1012.1 1011.6
11 17.09 С 4 20 км н/о +23.9 +17.9 69 +28 +28 душно 1013.0 1012.5
12 17.09 С 3 20 км н/о +24.0 +17.7 68 +28 +28 душно 1013.4 1012.9 +27.2
13 17.09 С 4 20 км н/о +24.1 +17.6 67 +28 +28 душно 1013.5 1013.0
14 17.09 С 4 20 км н/о +23.8 +17.6 68 +28 +28 душно 1013.4 1012.9
15 17.09 С 3 20 км н/о +23.6 +17.8 70 +28 +28 душно 1013.3 1012.8
16 17.09 С 3 20 км н/о +23.6 +16.9 66 +27 +27 жарко 1013.2 1012.7
17 17.09 С 2 20 км н/о +23.5 +17.3 68 +27 +27 душно 1013.1 1012.6
18 17.09 С 3 20 км н/о +22.9 +17.4 71 +28 +28 душно 1012.8 1012.3
20 17.09 С 3 20 км н/о +22.4 +17.8 75 +27 +27 душно 1012.9 1012.4
21 17.09 С 4 20 км н/о +22.4 +17.8 75 +27 +27 душно 1013.1 1012.6
23 17.09 С 6 20 км н/о +23.4 +18.5 74 +30 +30 очень
душно
1013.8 1013.3
00 18.09 С 3 20 км н/о +24.3 +18.7 71 +29 +29 душно 1014.1 1013.6 +21.8
01 18.09 С 3 20 км н/о +24.8 +18.7 69 +30 +30 душно 1014.6 1014.1
02 18.09 СВ 3 20 км н/о +26.3 +18.7 63 +31 +31 душно 1014.4 1013.9
03 18.09 СВ 4 20 км н/о +27.0 +20.1 66 +33 +33 очень
душно
1014.0 1013.5
04 18.09 СВ 3 20 км н/о +25.9 +19.1 66 +31 +31 очень
душно
1013.7 1013.2
05 18.09 СВ 3 20 км н/о +27.5 +18.5 58 +32 +32 очень
душно
1013.3 1012.8
06 18.09 СВ 3 20 км н/о +27.3 +17.5 55 +31 +31 душно 1013.1 1012.6
07 18.09 С 3 20 км н/о +27.1 +16.1 51 +30 +30 душно 1013.1 1012.6
09 18.09 СЗ 2 20 км н/о +24.1 +16.4 62 +28 +28 душно 1013.8 1013.3
10 18.09 С 1 20 км н/о +21.7 +17.1 75 +26 +26 душно 1014.1 1013.6
11 18.09 С 2 20 км н/о +20.9 +16.9 78 +25 +25 комфорт 1014.6 1014.1
12 18.09 С 2 20 км н/о +20.6 +17.2 81 +25 +25 комфорт 1015.0 1014.5 +27.9
13 18.09 С 2 20 км н/о +21.8 +18.2 80 +27 +27 душно 1015.3 1014.8
14 18.09 С 4 20 км н/о +23.7 +18.1 71 +28 +28 душно 1015.3 1014.8
15 18.09 С 3 20 км н/о +23.9 +18.8 73 +29 +29 душно 1015.4 1014.9
16 18.09 С 4 20 км н/о +23.7 +17.5 68 +28 +28 душно 1015.4 1014.9
17 18.09 С 4 20 км н/о +23.6 +17.4 68 +27 +27 жарко 1015.4 1014.9
18 18.09 С 5 18 км н/о +24.0 +18.7 72 +29 +29 душно 1015.3 1014.8
19 18.09 С 6 18 км н/о +23.9 +17.2 66 +28 +28 душно 1015.6 1015.1
20 18.09 С 5 20 км н/о +23.6 +16.2 63 +27 +27 жарко 1015.8 1015.3
21 18.09 С 5 20 км н/о +23.1 +15.9 64 +28 +28 душно 1016.5 1016.0
22 18.09 С 4 20 км н/о +22.7 +15.1 62 +27 +27 душно 1017.1 1016.6
23 18.09 С 4 20 км н/о +22.5 +14.9 62 +26 +26 жарко 1017.4 1016.9
00 19.09 С 5 20 км н/о +23.3 +14.6 58 +27 +27 душно 1017.8 1017.3 +20.5
01 19.09 С 5 20 км н/о +24.6 +14.1 52 +27 +27 жарко 1017.9 1017.4
02 19.09 С 4 20 км н/о +25.1 +14.3 51 +28 +28 жарко 1017.4 1016.9
03 19.09 С 5 20 км н/о +25.0 +14.5 52 +28 +28 жарко 1016.8 1016.3
04 19.09 С 4 20 км н/о +24.4 +14.8 55 +27 +27 жарко 1016.3 1015.8
05 19.09 С 4 20 км н/о +24.7 +14.2 52 +27 +27 жарко 1015.9 1015.4
06 19.09 С 4 20 км н/о +23.9 +14.6 56 +27 +27 жарко 1015.6 1015.1
07 19.09 С 5 20 км н/о +23.9 +14.3 55 +26 +26 жарко 1015.5 1015.0
08 19.09 С 4 20 км н/о +22.9 +14.5 59 +27 +27 душно 1015.8 1015.3
09 19.09 С 3 20 км н/о +22.2 +14.3 61 +25 +25 комфорт 1016.1 1015.6
10 19.09 С 4 20 км н/о +22.1 +14.0 60 +25 +25 комфорт 1016.0 1015.5
11 19.09 С 4 20 км н/о +22.1 +14.2 61 +25 +25 комфорт 1016.4 1015.9
12 19.09 С 4 20 км н/о +22.2 +14.1 60 +25 +25 комфорт 1016.3 1015.8 +25.5
13 19.09 С 4 20 км н/о +22.1 +14.5 62 +25 +25 комфорт 1016.1 1015.6
14 19.09 С 3 20 км н/о +21.6 +14.0 62 +24 +24 комфорт 1015.5 1015.0
15 19.09 С 3 20 км н/о +21.9 +14.3 62 +25 +25 комфорт 1015.4 1014.9
16 19.09 С 4 20 км н/о +21.9 +14.3 62 +25 +25 комфорт 1015.1 1014.6
18 19.09 С 4 20 км н/о +21.9 +15.0 65 +25 +25 комфорт 1014.7 1014.2
19 19.09 С 4 20 км н/о +22.2 +15.8 67 +26 +26 душно 1014.3 1013.8
20 19.09 С 3 20 км н/о +22.2 +16.0 68 +26 +26 душно 1014.2 1013.7
21 19.09 С 4 20 км н/о +22.2 +15.8 67 +26 +26 душно 1014.4 1013.9
22 19.09 С 4 20 км н/о +22.5 +16.3 68 +27 +27 душно 1014.7 1014.2
23 19.09 С 6 20 км н/о +23.1 +16.2 65 +28 +28 душно 1014.8 1014.3
00 20.09 С 5 20 км н/о +23.4 +17.2 68 +29 +29 душно 1015.0 1014.5 +21.6

 

Местоположение метеостанции Цусима (Япония): широта 34.20 долгота 129.30 высота над уровнем моря 19 м.

В архиве по умолчанию представлена погода в Цусиме за последнюю неделю. Архивные данные за месяц целиком и за предыдущие месяцы, начиная с января 2011 года, Вы можете получить, выбрав интересующий диапазон дат из раскрывающегося списка и нажав кнопку "Ввод!".


*Определитесь, кто Вы:
робот инопланетянин человек

Внимание! Время в таблицах - всемирное. Для получения местного времени необходимо прибавить поправку, которая равна 9 ч.

Смотрите также архив погоды в соседних городах и на ближайших метеорологических станциях:

Погода в Хирадо (Япония) (95 км)
Погода в Пусане (Корея) (103 км)
Погода в Тхонъёне (Корея) (108 км)
Погода в Фукуоке (Япония) (121 км)
Погода в Сасебо (Япония) (123 км)
Погода в Масане (Корея) (128 км)
Погода в Саге (Япония) (139 км)
Погода в Иидзуке (Япония) (142 км)
Погода в Ульсане (Корея) (150 км)
Погода в Симоносеки (Япония) (153 км)

Пояснения к столбцам:

Ветер - указаны скорость ветра в м/с - средняя за 10 мин, порывы в срок и между сроками (в фигурных скобках) и направление, откуда дует ветер: С - северный, СВ - северо-восточный, В - восточный, ЮВ - юго-восточный, Ю - южный, ЮЗ - юго-западный, З - западный, СЗ - северо-западный.
Видимость - горизонтальная дальность видимости в метрах или километрах. При видимости от 1 до 10 км при отсутствии осадков обычно наблюдается дымка, при ухудшении видимости до 1 км и менее - туман. В сухую погоду видимость может ухудшаться дымом, пылью или мглою.
Явления - указаны атмосферные явления, наблюдавшиеся в срок или в последний час перед сроком; фигурными скобками обозначены явления, наблюдавшиеся между сроками (за 1-3 часа до срока); квадратными скобками обозначены град или гололедные отложения с указанием их диаметра в мм.
Облачность - указаны через наклонную черту общая и нижняя облачность в баллах и высота нижней границы облаков в метрах; квадратными скобками обозначены формы облаков: Ci - перистые, Cs - перисто-слоистые, Cc - перисто-кучевые, Ac - высококучевые, As - высокослоистые, Sc - слоисто-кучевые, Ns - слоисто-дождевые, Cu - кучевые, Cb - кучево-дождевые. Подробнее классификацию облаков см. в Атласе облаков (PDF).
T - Температура воздуха - температура, измеренная на высоте 2 м над землей.
Td - Температура точки росы - температура, при понижении до которой содержащийся в воздухе водяной пар достигнет насыщения.
f - Относительная влажность воздуха - влажноcть воздуха, измеренная на высоте 2 м над землей.
Te - Эффективная температура - температура, которую ощущает одетый по сезону человек в тени. Характеристика душности погоды. При расчете учитывается влияние влажности воздуха и скорости ветра на теплоощущения человека.
Tes - Эффективная температура на солнце - температура, которую ощущает человек, с поправкой на солнечный нагрев. Характеристика знойности погоды. Зависит от высоты солнца над горизонтом, облачности и скорости ветра. Ночью, в пасмурную погоду, а также при ветре 12 м/с и более поправка равна нулю.
P - Атмосферное давление - приведенное к уровню моря атмосферное давление.
Po - Атмосферное давление - измеренное на уровне метеостанции атмосферное давление.
Tmin - Минимальная температура - минимум температуры воздуха на высоте 2 м над землей.
Tmax - Максимальная температура - максимум температуры воздуха на высоте 2 м над землей.
R - Количество осадков - Количество выпавших осадков за период времени, мм. При наведении курсора мыши на число - период времени, за который выпало указанное количество осадков.
R24 - Количество осадков - Количество выпавших осадков за 24 часа, мм.
S - Снежный покров - Высота снежного покрова, см. При наведении курсора мыши на число - состояние снежного покрова и степень покрытия местности в баллах.